Flag for U.S.A. Weather past 2 weeks in Frankfort, Kentucky, U.S.A.

Now
80 °F

Sunny.


Feels Like: 81 °F
Forecast: 58 / 87 °F
Wind: 6 mph from Northwest

Location: Capital City Airport

Current Time: Aug 1, 2015 at 8:59:45 PM

Latest Report: Aug 1, 2015 at 7:53 PM


Visibility: 10 mi

Pressure: 29.95 "Hg

Humidity: 49%

Dew point: 59 °F

Location of FrankfortLocation

Historic Weather in Frankfort — Graph

°F

Frankfort temperature yesterday

Maximum temperature yesterday: 86 °F (at 2:53 PM)
Minimum temperature yesterday: 61 °F (at 5:53 AM)
Average temperature yesterday: 75 °F

Past Weeks' High & Low Weather Summary

 TemperatureHumidityPressure
High91 °F (Jul 18, 4:53 PM)94% (Jul 21, 2:53 AM)30.08 "Hg (Jul 21, 2:53 AM)
Low61 °F (Jul 24, 5:53 AM)35% (Jul 22, 6:53 PM)29.72 "Hg (Jul 21, 5:53 AM)
Average77 °F72%29.95 "Hg
* Reported Jul 17 6:53 PM — Aug 1 6:53 PM, Frankfort, Weather by CustomWeather, © 2015

Note: Actual official high and low records may vary slightly from our data, if they occured in-between our weather recording intervals... More about our weather records

Advertising

Frankfort weather history for previous 24 hours

 ConditionsComfort  
Time TempWeatherWind HumidityBarometerVisibility
6:53 PM
Sat, Aug 1
83 °FSunny.3 mph40%29.95 "Hg10 mi
5:53 PM84 °FSunny.3 mph37%29.95 "Hg10 mi
4:53 PM83 °FSunny.8 mph38%29.96 "Hg10 mi
3:53 PM85 °FSunny.10 mph36%29.96 "Hg10 mi
2:53 PM84 °FSunny.6 mph37%29.97 "Hg10 mi
1:53 PM83 °FSunny.7 mph38%29.98 "Hg10 mi
12:53 PM83 °FSunny.9 mph40%29.99 "Hg10 mi
11:53 AM82 °FSunny.7 mph46%29.99 "Hg10 mi
10:53 AM79 °FSunny.5 mph56%30.00 "Hg10 mi
9:53 AM75 °FPassing clouds.3 mph64%30.00 "Hg10 mi
8:53 AM73 °FSunny.5 mph66%29.99 "Hg10 mi
7:53 AM67 °FSunny.No wind85%29.98 "Hg10 mi
6:53 AM64 °FClear.No wind87%29.97 "Hg10 mi
5:53 AM64 °FClear.3 mph87%29.96 "Hg10 mi
4:53 AM64 °FClear.3 mph90%29.96 "Hg10 mi
3:53 AM65 °FClear.No wind87%29.97 "Hg10 mi
2:53 AM67 °FClear.No wind81%29.98 "Hg10 mi
1:53 AM70 °FClear.3 mph73%29.99 "Hg10 mi
12:53 AM72 °FClear.6 mph66%29.99 "Hg10 mi
11:53 PM
Fri, Jul 31
71 °FClear.6 mph73%29.98 "Hg10 mi
10:53 PM71 °FClear.6 mph76%29.98 "Hg10 mi
9:53 PM72 °FClear.5 mph76%29.97 "Hg10 mi
8:53 PM75 °FSunny.3 mph69%29.97 "Hg10 mi
Weather by CustomWeather, © 2015

See weather overviewHow to use our weather pages